Time,TemperatureF,DewpointF,PressureIn,WindDirection,WindDirectionDegrees,WindSpeedMPH,WindSpeedGustMPH,Humidity,HourlyPrecipIn,Conditions,Clouds,dailyrainin,SoftwareType,DateUTC
2013-04-14 00:05:00,69.0,63.6,30.00,East,99,1.0,1.0,83,0.00,,,0.00,Wunderground v.1.15,2013-04-14 04:05:00,
2013-04-14 00:07:00,69.0,64.0,30.00,ESE,105,2.0,2.0,83,0.00,,,0.00,weatherlink.com 1.10,2013-04-14 04:07:00,
2013-04-14 00:10:00,69.0,63.6,30.00,East,99,1.0,1.0,83,0.00,,,0.00,Wunderground v.1.15,2013-04-14 04:10:00,
2013-04-14 00:15:00,68.9,63.5,30.00,East,99,1.0,1.0,83,0.00,,,0.00,Wunderground v.1.15,2013-04-14 04:15:00,
2013-04-14 00:20:00,68.9,63.9,30.00,ESE,105,1.0,1.0,84,0.00,,,0.00,Wunderground v.1.15,2013-04-14 04:20:00,
2013-04-14 00:30:00,68.6,63.6,30.01,East,91,0.0,1.0,84,0.00,,,0.00,Wunderground v.1.15,2013-04-14 04:30:00,
2013-04-14 00:35:00,68.4,63.4,30.01,East,91,0.0,0.0,84,0.00,,,0.00,Wunderground v.1.15,2013-04-14 04:35:00,
2013-04-14 00:40:00,68.2,63.5,30.01,East,91,0.0,0.0,85,0.00,,,0.00,Wunderground v.1.15,2013-04-14 04:40:00,
2013-04-14 00:50:00,67.8,63.5,30.01,East,88,0.0,0.0,86,0.00,,,0.00,Wunderground v.1.15,2013-04-14 04:50:00,
2013-04-14 00:55:00,67.6,63.3,30.01,East,88,0.0,0.0,86,0.00,,,0.00,Wunderground v.1.15,2013-04-14 04:55:00,
2013-04-14 01:00:00,67.4,63.4,30.01,East,88,0.0,0.0,87,0.00,,,0.00,Wunderground v.1.15,2013-04-14 05:00:00,
2013-04-14 01:05:00,67.3,63.3,30.01,East,88,0.0,0.0,87,0.00,,,0.00,Wunderground v.1.15,2013-04-14 05:05:00,
2013-04-14 01:13:00,67.2,64.0,30.01,East,88,0.0,0.0,88,0.00,,,0.00,weatherlink.com 1.10,2013-04-14 05:13:00,
2013-04-14 01:20:00,67.3,63.9,30.01,East,88,0.0,0.0,89,0.00,,,0.00,Wunderground v.1.15,2013-04-14 05:20:00,
2013-04-14 01:25:00,67.3,63.6,30.01,East,88,0.0,0.0,88,0.00,,,0.00,Wunderground v.1.15,2013-04-14 05:25:00,
2013-04-14 01:30:00,67.2,63.8,30.00,East,88,0.0,0.0,89,0.00,,,0.00,Wunderground v.1.15,2013-04-14 05:30:00,
2013-04-14 01:40:00,67.4,64.0,30.00,East,89,0.0,0.0,89,0.00,,,0.00,Wunderground v.1.15,2013-04-14 05:40:00,
2013-04-14 01:45:00,67.3,63.9,29.99,East,89,0.0,0.0,89,0.00,,,0.00,Wunderground v.1.15,2013-04-14 05:45:00,
2013-04-14 01:50:00,67.1,63.7,29.99,East,89,0.0,0.0,89,0.00,,,0.00,Wunderground v.1.15,2013-04-14 05:50:00,
2013-04-14 02:00:00,66.8,63.5,29.98,East,89,0.0,0.0,89,0.00,,,0.00,Wunderground v.1.15,2013-04-14 06:00:00,
2013-04-14 02:05:00,66.7,63.7,29.99,East,89,0.0,0.0,90,0.00,,,0.00,Wunderground v.1.15,2013-04-14 06:05:00,
2013-04-14 02:10:00,66.7,63.7,29.99,East,89,0.0,0.0,90,0.00,,,0.00,Wunderground v.1.15,2013-04-14 06:10:00,
2013-04-14 02:15:00,66.9,64.2,29.99,East,89,0.0,0.0,91,0.00,,,0.00,Wunderground v.1.15,2013-04-14 06:15:00,
2013-04-14 02:25:00,67.5,64.8,29.99,East,89,0.0,0.0,91,0.00,,,0.00,Wunderground v.1.15,2013-04-14 06:25:00,
2013-04-14 02:30:00,67.9,65.2,29.99,East,90,0.0,0.0,91,0.00,,,0.00,Wunderground v.1.15,2013-04-14 06:30:00,
2013-04-14 02:35:00,68.3,65.3,29.99,East,98,0.0,0.0,90,0.00,,,0.00,Wunderground v.1.15,2013-04-14 06:35:00,
2013-04-14 02:45:00,68.4,65.0,29.98,East,101,1.0,2.0,89,0.00,,,0.00,Wunderground v.1.15,2013-04-14 06:45:00,
2013-04-14 02:50:00,68.4,65.0,29.99,East,89,1.0,2.0,89,0.00,,,0.00,Wunderground v.1.15,2013-04-14 06:50:00,
2013-04-14 02:55:00,68.5,65.1,29.99,ESE,105,1.0,2.0,89,0.00,,,0.00,Wunderground v.1.15,2013-04-14 06:55:00,
2013-04-14 03:00:00,68.7,65.3,29.99,East,97,1.0,1.0,89,0.00,,,0.00,Wunderground v.1.15,2013-04-14 07:00:00,
2013-04-14 03:05:00,68.8,65.4,29.98,East,97,0.0,2.0,89,0.00,,,0.00,Wunderground v.1.15,2013-04-14 07:05:00,
2013-04-14 03:15:00,69.0,65.6,29.98,East,101,0.0,0.0,89,0.00,,,0.00,Wunderground v.1.15,2013-04-14 07:15:00,
2013-04-14 03:20:00,69.1,65.7,29.98,East,100,0.0,0.0,89,0.00,,,0.00,Wunderground v.1.15,2013-04-14 07:20:00,
2013-04-14 03:25:00,69.2,65.8,29.97,ESE,105,0.0,0.0,89,0.00,,,0.00,Wunderground v.1.15,2013-04-14 07:25:00,
2013-04-14 03:35:00,69.3,66.6,29.97,East,82,0.0,0.0,91,0.00,,,0.00,Wunderground v.1.15,2013-04-14 07:35:00,
2013-04-14 03:40:00,68.9,66.5,29.97,East,83,0.0,0.0,92,0.00,,,0.00,Wunderground v.1.15,2013-04-14 07:40:00,
2013-04-14 03:45:00,68.6,66.5,29.97,East,82,0.0,0.0,93,0.00,,,0.00,Wunderground v.1.15,2013-04-14 07:45:00,
2013-04-14 03:50:00,68.4,66.0,29.97,ESE,105,0.0,1.0,92,0.00,,,0.00,Wunderground v.1.15,2013-04-14 07:50:00,
2013-04-14 03:58:00,68.5,66.0,29.96,East,94,1.0,2.0,92,0.00,,,0.00,weatherlink.com 1.10,2013-04-14 07:58:00,
2013-04-14 04:05:00,68.6,66.2,29.96,East,96,0.0,0.0,92,0.00,,,0.00,Wunderground v.1.15,2013-04-14 08:05:00,
2013-04-14 04:10:00,68.5,66.1,29.96,East,96,0.0,0.0,92,0.00,,,0.00,Wunderground v.1.15,2013-04-14 08:10:00,
2013-04-14 04:15:00,68.4,66.0,29.96,East,82,0.0,0.0,92,0.00,,,0.00,Wunderground v.1.15,2013-04-14 08:15:00,
2013-04-14 04:25:00,68.3,65.9,29.96,East,96,0.0,0.0,92,0.00,,,0.00,Wunderground v.1.15,2013-04-14 08:25:00,
2013-04-14 04:30:00,68.2,65.8,29.96,ESE,114,0.0,0.0,92,0.00,,,0.00,Wunderground v.1.15,2013-04-14 08:30:00,
2013-04-14 04:35:00,68.1,65.7,29.96,East,94,0.0,0.0,92,0.00,,,0.00,Wunderground v.1.15,2013-04-14 08:35:00,
2013-04-14 04:45:00,68.1,65.7,29.95,East,98,0.0,1.0,92,0.00,,,0.00,Wunderground v.1.15,2013-04-14 08:45:00,
2013-04-14 04:50:00,68.2,65.8,29.95,ESE,107,0.0,0.0,92,0.00,,,0.00,Wunderground v.1.15,2013-04-14 08:50:00,
2013-04-14 05:00:00,68.2,65.5,29.94,East,96,0.0,0.0,91,0.00,,,0.00,Wunderground v.1.15,2013-04-14 09:00:00,
2013-04-14 05:05:00,68.1,65.7,29.94,East,96,0.0,0.0,92,0.00,,,0.00,Wunderground v.1.15,2013-04-14 09:05:00,
2013-04-14 05:10:00,68.1,65.4,29.94,East,96,0.0,0.0,91,0.00,,,0.00,Wunderground v.1.15,2013-04-14 09:10:00,
2013-04-14 05:15:00,68.0,65.6,29.94,East,93,0.0,0.0,92,0.00,,,0.00,Wunderground v.1.15,2013-04-14 09:15:00,
2013-04-14 05:20:00,67.9,65.0,29.94,East,93,0.0,1.0,92,0.00,,,0.00,weatherlink.com 1.10,2013-04-14 09:20:00,
2013-04-14 05:30:00,67.8,65.4,29.94,East,93,0.0,0.0,92,0.00,,,0.00,Wunderground v.1.15,2013-04-14 09:30:00,
2013-04-14 05:35:00,67.7,65.3,29.94,East,96,0.0,0.0,92,0.00,,,0.00,Wunderground v.1.15,2013-04-14 09:35:00,
2013-04-14 05:40:00,67.6,65.2,29.94,East,96,0.0,0.0,92,0.00,,,0.00,Wunderground v.1.15,2013-04-14 09:40:00,
2013-04-14 05:50:00,67.6,65.5,29.94,East,95,0.0,0.0,93,0.00,,,0.00,Wunderground v.1.15,2013-04-14 09:50:00,
2013-04-14 05:55:00,67.8,65.7,29.94,East,95,0.0,1.0,93,0.00,,,0.00,Wunderground v.1.15,2013-04-14 09:55:00,
2013-04-14 06:05:00,68.2,65.8,29.94,East,100,0.0,0.0,92,0.00,,,0.00,Wunderground v.1.15,2013-04-14 10:05:00,
2013-04-14 06:10:00,68.6,65.9,29.94,East,96,0.0,0.0,91,0.00,,,0.00,Wunderground v.1.15,2013-04-14 10:10:00,
2013-04-14 06:15:00,68.8,66.1,29.95,East,96,0.0,0.0,91,0.00,,,0.00,Wunderground v.1.15,2013-04-14 10:15:00,
2013-04-14 06:20:00,68.7,66.0,29.95,East,96,0.0,0.0,91,0.00,,,0.00,Wunderground v.1.15,2013-04-14 10:20:00,
2013-04-14 06:25:00,68.6,66.2,29.95,East,96,0.0,0.0,92,0.00,,,0.00,Wunderground v.1.15,2013-04-14 10:25:00,
2013-04-14 06:35:00,68.5,66.1,29.95,East,96,0.0,0.0,92,0.00,,,0.00,Wunderground v.1.15,2013-04-14 10:35:00,
2013-04-14 06:40:00,68.6,66.2,29.95,East,96,0.0,0.0,92,0.00,,,0.00,Wunderground v.1.15,2013-04-14 10:40:00,
2013-04-14 06:45:00,68.7,66.3,29.95,East,96,0.0,0.0,92,0.00,,,0.00,Wunderground v.1.15,2013-04-14 10:45:00,
2013-04-14 06:50:00,69.1,66.4,29.95,East,101,0.0,0.0,91,0.00,,,0.00,Wunderground v.1.15,2013-04-14 10:50:00,
2013-04-14 06:59:00,69.4,67.0,29.96,East,101,0.0,1.0,91,0.00,,,0.00,weatherlink.com 1.10,2013-04-14 10:59:00,
2013-04-14 07:05:00,69.3,66.6,29.96,East,101,0.0,0.0,91,0.00,,,0.00,Wunderground v.1.15,2013-04-14 11:05:00,
2013-04-14 07:10:00,69.2,66.5,29.96,East,101,0.0,0.0,91,0.00,,,0.00,Wunderground v.1.15,2013-04-14 11:10:00,
2013-04-14 07:15:00,69.4,66.7,29.96,ESE,102,0.0,1.0,91,0.00,,,0.00,Wunderground v.1.15,2013-04-14 11:15:00,
2013-04-14 07:25:00,70.0,66.9,29.96,East,85,0.0,0.0,90,0.00,,,0.00,Wunderground v.1.15,2013-04-14 11:25:00,
2013-04-14 07:30:00,70.1,66.7,29.96,East,98,0.0,0.0,89,0.00,,,0.00,Wunderground v.1.15,2013-04-14 11:30:00,
2013-04-14 07:35:00,70.2,67.1,29.96,East,95,0.0,0.0,90,0.00,,,0.00,Wunderground v.1.15,2013-04-14 11:35:00,
2013-04-14 07:40:00,70.1,67.0,29.96,East,94,0.0,0.0,90,0.00,,,0.00,Wunderground v.1.15,2013-04-14 11:40:00,
2013-04-14 07:48:00,70.1,67.0,29.96,East,95,0.0,2.0,90,0.00,,,0.00,weatherlink.com 1.10,2013-04-14 11:48:00,
2013-04-14 07:55:00,70.2,67.1,29.96,East,84,0.0,0.0,90,0.00,,,0.00,Wunderground v.1.15,2013-04-14 11:55:00,
2013-04-14 08:00:00,70.5,67.4,29.96,East,88,0.0,0.0,90,0.00,,,0.00,Wunderground v.1.15,2013-04-14 12:00:00,
2013-04-14 08:05:00,71.1,68.0,29.96,ENE,72,0.0,1.0,90,0.00,,,0.00,Wunderground v.1.15,2013-04-14 12:05:00,
2013-04-14 08:15:00,71.9,68.2,29.96,East,93,0.0,0.0,88,0.00,,,0.00,Wunderground v.1.15,2013-04-14 12:15:00,
2013-04-14 08:20:00,72.4,68.6,29.96,East,89,0.0,0.0,88,0.00,,,0.00,Wunderground v.1.15,2013-04-14 12:20:00,
2013-04-14 08:25:00,72.7,68.6,29.97,East,99,0.0,2.0,87,0.00,,,0.00,Wunderground v.1.15,2013-04-14 12:25:00,
2013-04-14 08:35:00,72.9,68.8,29.97,East,84,0.0,0.0,87,0.00,,,0.00,Wunderground v.1.15,2013-04-14 12:35:00,
2013-04-14 08:40:00,73.1,69.0,29.97,ENE,70,0.0,0.0,87,0.00,,,0.00,Wunderground v.1.15,2013-04-14 12:40:00,
2013-04-14 08:45:00,73.1,68.7,29.95,ENE,67,0.0,1.0,86,0.00,,,0.00,Wunderground v.1.15,2013-04-14 12:45:00,
2013-04-14 08:50:00,73.0,68.9,29.94,NE,43,1.0,1.0,87,0.00,,,0.00,Wunderground v.1.15,2013-04-14 12:50:00,
2013-04-14 08:55:00,73.0,68.9,29.95,East,88,1.0,1.0,87,0.00,,,0.00,Wunderground v.1.15,2013-04-14 12:55:00,
2013-04-14 09:05:00,73.2,69.1,29.97,East,93,0.0,0.0,87,0.00,,,0.00,Wunderground v.1.15,2013-04-14 13:05:00,
2013-04-14 09:10:00,73.4,69.6,29.97,East,98,0.0,0.0,88,0.00,,,0.00,Wunderground v.1.15,2013-04-14 13:10:00,
2013-04-14 09:15:00,73.9,69.8,29.98,East,92,0.0,1.0,87,0.00,,,0.00,Wunderground v.1.15,2013-04-14 13:15:00,
2013-04-14 09:25:00,74.6,70.1,29.98,East,93,1.0,2.0,86,0.00,,,0.00,Wunderground v.1.15,2013-04-14 13:25:00,
2013-04-14 09:30:00,74.8,70.0,29.98,East,99,0.0,2.0,85,0.00,,,0.00,Wunderground v.1.15,2013-04-14 13:30:00,
2013-04-14 09:35:00,74.9,70.4,29.97,East,88,0.0,2.0,86,0.00,,,0.00,Wunderground v.1.15,2013-04-14 13:35:00,
2013-04-14 09:44:00,75.3,71.0,29.97,East,86,0.0,2.0,86,0.00,,,0.00,weatherlink.com 1.10,2013-04-14 13:44:00,
2013-04-14 09:50:00,75.4,70.6,29.98,ENE,72,0.0,0.0,85,0.00,,,0.00,Wunderground v.1.15,2013-04-14 13:50:00,
2013-04-14 09:55:00,75.4,70.6,29.98,ENE,64,0.0,0.0,85,0.00,,,0.00,Wunderground v.1.15,2013-04-14 13:55:00,
2013-04-14 10:05:00,75.5,71.4,29.98,East,81,1.0,1.0,87,0.00,,,0.00,Wunderground v.1.15,2013-04-14 14:05:00,
2013-04-14 10:15:00,76.2,71.7,29.98,East,79,0.0,1.0,86,0.00,,,0.00,Wunderground v.1.15,2013-04-14 14:15:00,
2013-04-14 10:20:00,76.6,71.7,29.99,East,82,0.0,0.0,85,0.00,,,0.00,Wunderground v.1.15,2013-04-14 14:20:00,
2013-04-14 10:25:00,77.0,72.1,29.99,NE,44,0.0,2.0,85,0.00,,,0.00,Wunderground v.1.15,2013-04-14 14:25:00,
2013-04-14 10:34:00,78.4,73.0,29.99,East,79,0.0,3.0,84,0.00,,,0.00,weatherlink.com 1.10,2013-04-14 14:34:00,
2013-04-14 10:40:00,79.0,73.0,29.98,NE,38,1.0,2.0,82,0.00,,,0.00,Wunderground v.1.15,2013-04-14 14:40:00,
2013-04-14 10:50:00,79.0,72.7,29.98,East,96,1.0,1.0,81,0.00,,,0.00,Wunderground v.1.15,2013-04-14 14:50:00,
2013-04-14 10:55:00,79.4,73.8,29.99,East,88,1.0,1.0,83,0.00,,,0.00,Wunderground v.1.15,2013-04-14 14:55:00,
2013-04-14 11:00:00,79.8,73.4,29.98,NE,53,0.0,0.0,81,0.00,,,0.00,Wunderground v.1.15,2013-04-14 15:00:00,
2013-04-14 11:07:00,79.9,73.0,29.98,ENE,73,0.0,3.0,80,0.00,,,0.00,weatherlink.com 1.10,2013-04-14 15:07:00,
2013-04-14 11:15:00,81.2,74.4,29.98,ENE,75,1.0,2.0,80,0.00,,,0.00,Wunderground v.1.15,2013-04-14 15:15:00,
2013-04-14 11:23:00,82.6,74.0,29.98,NNE,15,2.0,8.0,76,0.00,,,0.00,weatherlink.com 1.10,2013-04-14 15:23:00,
2013-04-14 11:30:00,81.8,73.9,29.98,ENE,75,1.0,1.0,77,0.00,,,0.00,Wunderground v.1.15,2013-04-14 15:30:00,
2013-04-14 11:35:00,81.4,73.5,29.98,NE,51,1.0,2.0,77,0.00,,,0.00,Wunderground v.1.15,2013-04-14 15:35:00,
2013-04-14 11:45:00,81.1,73.2,29.98,ENE,69,2.0,2.0,77,0.00,,,0.00,Wunderground v.1.15,2013-04-14 15:45:00,
2013-04-14 11:50:00,81.2,73.3,29.98,ENE,72,1.0,1.0,77,0.00,,,0.00,Wunderground v.1.15,2013-04-14 15:50:00,
2013-04-14 11:55:00,81.0,73.5,29.99,ENE,72,1.0,1.0,78,0.00,,,0.00,Wunderground v.1.15,2013-04-14 15:55:00,
2013-04-14 12:00:00,81.0,73.1,29.99,NE,39,2.0,4.0,77,0.00,,,0.00,Wunderground v.1.15,2013-04-14 16:00:00,
2013-04-14 12:10:00,82.1,74.2,29.99,NE,34,3.0,3.0,77,0.00,,,0.00,Wunderground v.1.15,2013-04-14 16:10:00,
2013-04-14 12:15:00,82.6,74.3,29.99,NE,50,2.0,4.0,76,0.00,,,0.00,Wunderground v.1.15,2013-04-14 16:15:00,
2013-04-14 12:25:00,82.7,73.6,29.98,NNE,32,2.0,3.0,74,0.00,,,0.00,Wunderground v.1.15,2013-04-14 16:25:00,
2013-04-14 12:30:00,82.4,73.3,29.98,NNE,32,3.0,3.0,74,0.00,,,0.00,Wunderground v.1.15,2013-04-14 16:30:00,
2013-04-14 12:35:00,82.5,73.4,29.98,NW,325,3.0,4.0,74,0.00,,,0.00,Wunderground v.1.15,2013-04-14 16:35:00,
2013-04-14 12:45:00,82.3,72.8,29.97,NNE,30,4.0,4.0,73,0.00,,,0.00,Wunderground v.1.15,2013-04-14 16:45:00,
2013-04-14 12:55:00,82.9,72.9,29.96,NW,308,4.0,4.0,72,0.00,,,0.00,Wunderground v.1.15,2013-04-14 16:55:00,
2013-04-14 13:00:00,83.3,73.7,29.96,NNE,22,4.0,4.0,73,0.00,,,0.00,Wunderground v.1.15,2013-04-14 17:00:00,
2013-04-14 13:05:00,83.4,73.8,29.95,NE,53,4.0,4.0,73,0.00,,,0.00,Wunderground v.1.15,2013-04-14 17:05:00,
2013-04-14 13:15:00,83.4,73.4,29.94,NNW,348,3.0,4.0,72,0.00,,,0.00,Wunderground v.1.15,2013-04-14 17:15:00,
2013-04-14 13:20:00,83.8,73.8,29.94,NNW,343,4.0,4.0,72,0.00,,,0.00,Wunderground v.1.15,2013-04-14 17:20:00,
2013-04-14 13:25:00,84.1,73.3,29.94,NNE,25,4.0,4.0,70,0.00,,,0.00,Wunderground v.1.15,2013-04-14 17:25:00,
2013-04-14 13:35:00,84.5,73.6,29.92,North,352,4.0,5.0,70,0.00,,,0.00,Wunderground v.1.15,2013-04-14 17:35:00,
2013-04-14 13:40:00,84.8,73.9,29.92,NE,46,5.0,5.0,70,0.00,,,0.00,Wunderground v.1.15,2013-04-14 17:40:00,
2013-04-14 13:45:00,86.1,74.7,29.92,NE,37,4.0,5.0,69,0.00,,,0.00,Wunderground v.1.15,2013-04-14 17:45:00,
2013-04-14 13:53:00,86.6,75.0,29.93,NNE,19,3.0,9.0,68,0.00,,,0.00,weatherlink.com 1.10,2013-04-14 17:53:00,
2013-04-14 14:00:00,86.3,72.7,29.93,NNW,342,4.0,6.0,64,0.00,,,0.00,Wunderground v.1.15,2013-04-14 18:00:00,
2013-04-14 14:09:00,85.5,73.0,29.92,NNE,24,4.0,9.0,66,0.00,,,0.00,weatherlink.com 1.10,2013-04-14 18:09:00,
2013-04-14 14:15:00,85.7,73.0,29.92,NNE,26,4.0,5.0,66,0.00,,,0.00,Wunderground v.1.15,2013-04-14 18:15:00,
2013-04-14 14:20:00,85.9,72.8,29.91,North,10,3.0,3.0,65,0.00,,,0.00,Wunderground v.1.15,2013-04-14 18:20:00,
2013-04-14 14:30:00,85.8,72.2,29.91,NNE,14,4.0,4.0,64,0.00,,,0.00,Wunderground v.1.15,2013-04-14 18:30:00,
2013-04-14 14:35:00,85.9,72.8,29.90,NE,38,4.0,4.0,65,0.00,,,0.00,Wunderground v.1.15,2013-04-14 18:35:00,
2013-04-14 14:42:00,86.9,74.0,29.91,NW,321,2.0,6.0,65,0.00,,,0.00,weatherlink.com 1.10,2013-04-14 18:42:00,
2013-04-14 14:50:00,87.5,74.3,29.90,NE,41,2.0,2.0,65,0.00,,,0.00,Wunderground v.1.15,2013-04-14 18:50:00,
2013-04-14 14:56:00,87.3,73.2,29.90,NE,43,2.0,2.0,63,0.00,,,0.00,Wunderground v.1.15,2013-04-14 18:56:00,
2013-04-14 15:05:00,86.4,73.2,29.89,ENE,63,1.0,2.0,65,0.00,,,0.00,Wunderground v.1.15,2013-04-14 19:05:00,
2013-04-14 15:15:00,86.1,73.0,29.89,ENE,75,1.0,2.0,65,0.00,,,0.00,Wunderground v.1.15,2013-04-14 19:15:00,
2013-04-14 15:20:00,85.6,72.9,29.88,ENE,74,0.0,0.0,66,0.00,,,0.00,Wunderground v.1.15,2013-04-14 19:20:00,
2013-04-14 15:25:00,85.6,73.4,29.88,ENE,57,0.0,2.0,67,0.00,,,0.00,Wunderground v.1.15,2013-04-14 19:25:00,
2013-04-14 15:30:00,85.8,72.7,29.88,NE,56,0.0,0.0,65,0.00,,,0.00,Wunderground v.1.15,2013-04-14 19:30:00,
2013-04-14 15:40:00,86.0,73.3,29.87,East,88,0.0,0.0,66,0.00,,,0.00,Wunderground v.1.15,2013-04-14 19:40:00,
2013-04-14 15:45:00,86.1,72.5,29.86,ENE,64,1.0,1.0,64,0.00,,,0.00,Wunderground v.1.15,2013-04-14 19:45:00,
2013-04-14 15:55:00,86.9,71.8,29.86,NE,36,2.0,3.0,61,0.00,,,0.00,Wunderground v.1.15,2013-04-14 19:55:00,
2013-04-14 16:00:00,87.1,71.5,29.86,NE,44,3.0,3.0,60,0.00,,,0.00,Wunderground v.1.15,2013-04-14 20:00:00,
2013-04-14 16:05:00,87.5,71.9,29.86,NE,36,3.0,3.0,60,0.00,,,0.00,Wunderground v.1.15,2013-04-14 20:05:00,
2013-04-14 16:10:00,88.1,72.5,29.86,ENE,61,2.0,2.0,60,0.00,,,0.00,Wunderground v.1.15,2013-04-14 20:10:00,
2013-04-14 16:20:00,88.9,73.2,29.86,NNW,345,3.0,3.0,60,0.00,,,0.00,Wunderground v.1.15,2013-04-14 20:20:00,
2013-04-14 16:30:00,90.0,73.2,29.85,NE,53,4.0,4.0,58,0.00,,,0.00,Wunderground v.1.15,2013-04-14 20:30:00,
2013-04-14 16:35:00,90.0,73.2,29.85,NE,41,3.0,4.0,58,0.00,,,0.00,Wunderground v.1.15,2013-04-14 20:35:00,
2013-04-14 16:40:00,89.6,71.8,29.85,North,8,3.0,3.0,56,0.00,,,0.00,Wunderground v.1.15,2013-04-14 20:40:00,
2013-04-14 16:45:00,90.1,72.8,29.85,ENE,58,2.0,3.0,57,0.00,,,0.00,Wunderground v.1.15,2013-04-14 20:45:00,
2013-04-14 16:54:00,90.6,74.0,29.85,NNW,346,3.0,5.0,59,0.00,,,0.00,weatherlink.com 1.10,2013-04-14 20:54:00,
2013-04-14 17:00:00,89.8,71.5,29.85,NE,36,2.0,2.0,55,0.00,,,0.00,Wunderground v.1.15,2013-04-14 21:00:00,
2013-04-14 17:05:00,89.3,71.0,29.85,NNW,333,2.0,3.0,55,0.00,,,0.00,Wunderground v.1.15,2013-04-14 21:05:00,
2013-04-14 17:11:00,89.0,72.0,29.85,NNE,14,3.0,6.0,58,0.00,,,0.00,weatherlink.com 1.10,2013-04-14 21:11:00,
2013-04-14 17:20:00,88.3,71.1,29.85,North,360,2.0,3.0,57,0.00,,,0.00,Wunderground v.1.15,2013-04-14 21:20:00,
2013-04-14 17:28:00,88.1,71.0,29.85,NNW,327,3.0,7.0,58,0.00,,,0.00,weatherlink.com 1.10,2013-04-14 21:28:00,
2013-04-14 17:35:00,88.3,71.1,29.85,NE,49,3.0,3.0,57,0.00,,,0.00,Wunderground v.1.15,2013-04-14 21:35:00,
2013-04-14 17:40:00,88.3,71.1,29.85,North,9,3.0,3.0,57,0.00,,,0.00,Wunderground v.1.15,2013-04-14 21:40:00,
2013-04-14 17:45:00,88.3,72.2,29.85,NNE,27,2.0,3.0,59,0.00,,,0.00,Wunderground v.1.15,2013-04-14 21:45:00,
2013-04-14 17:55:00,87.6,74.8,29.85,East,99,1.0,1.0,66,0.00,,,0.00,Wunderground v.1.15,2013-04-14 21:55:00,
2013-04-14 18:01:00,85.7,75.0,29.85,ESE,120,4.0,5.0,70,0.00,,,0.00,weatherlink.com 1.10,2013-04-14 22:01:00,
2013-04-14 18:10:00,84.6,75.0,29.85,East,100,1.0,2.0,73,0.00,,,0.00,Wunderground v.1.15,2013-04-14 22:10:00,
2013-04-14 18:15:00,84.9,71.8,29.85,ENE,64,1.0,1.0,65,0.00,,,0.00,Wunderground v.1.15,2013-04-14 22:15:00,
2013-04-14 18:25:00,86.5,71.9,29.84,ENE,75,1.0,1.0,62,0.00,,,0.00,Wunderground v.1.15,2013-04-14 22:25:00,
2013-04-14 18:34:00,87.3,72.0,29.84,NE,50,2.0,7.0,60,0.00,,,0.00,weatherlink.com 1.10,2013-04-14 22:34:00,
2013-04-14 18:40:00,87.5,72.4,29.84,NNE,30,1.0,3.0,61,0.00,,,0.00,Wunderground v.1.15,2013-04-14 22:40:00,
2013-04-14 18:50:00,87.3,72.7,29.84,ESE,107,2.0,3.0,62,0.00,,,0.00,Wunderground v.1.15,2013-04-14 22:50:00,
2013-04-14 18:55:00,86.9,73.3,29.85,ESE,109,2.0,3.0,64,0.00,,,0.00,Wunderground v.1.15,2013-04-14 22:55:00,
2013-04-14 19:00:00,86.5,73.3,29.85,East,101,1.0,1.0,65,0.00,,,0.00,Wunderground v.1.15,2013-04-14 23:00:00,
2013-04-14 19:07:00,85.8,74.0,29.85,East,101,4.0,8.0,68,0.00,,,0.00,weatherlink.com 1.10,2013-04-14 23:07:00,
2013-04-14 19:15:00,85.0,73.7,29.86,ESE,102,3.0,7.0,69,0.00,,,0.00,Wunderground v.1.15,2013-04-14 23:15:00,
2013-04-14 19:20:00,84.5,74.1,29.86,ESE,106,3.0,4.0,71,0.00,,,0.00,Wunderground v.1.15,2013-04-14 23:20:00,
2013-04-14 19:30:00,83.7,73.7,29.87,East,94,3.0,3.0,72,0.00,,,0.00,Wunderground v.1.15,2013-04-14 23:30:00,
2013-04-14 19:35:00,83.4,73.8,29.87,East,101,2.0,3.0,73,0.00,,,0.00,Wunderground v.1.15,2013-04-14 23:35:00,
2013-04-14 19:40:00,83.1,73.5,29.87,ESE,105,2.0,2.0,73,0.00,,,0.00,Wunderground v.1.15,2013-04-14 23:40:00,
2013-04-14 19:50:00,82.6,73.1,29.87,East,101,4.0,4.0,73,0.00,,,0.00,Wunderground v.1.15,2013-04-14 23:50:00,
2013-04-14 19:55:00,82.3,72.4,29.87,East,100,3.0,4.0,72,0.00,,,0.00,Wunderground v.1.15,2013-04-14 23:55:00,
2013-04-14 20:00:00,82.1,72.2,29.87,ESE,104,2.0,2.0,72,0.00,,,0.00,Wunderground v.1.15,2013-04-15 00:00:00,
2013-04-14 20:10:00,81.7,71.8,29.88,ESE,102,2.0,4.0,72,0.00,,,0.00,Wunderground v.1.15,2013-04-15 00:10:00,
2013-04-14 20:15:00,81.6,71.7,29.88,ESE,102,2.0,4.0,72,0.00,,,0.00,Wunderground v.1.15,2013-04-15 00:15:00,
2013-04-14 20:25:00,81.3,71.4,29.89,East,94,2.0,5.0,72,0.00,,,0.00,Wunderground v.1.15,2013-04-15 00:25:00,
2013-04-14 20:30:00,81.2,71.3,29.89,East,101,2.0,2.0,72,0.00,,,0.00,Wunderground v.1.15,2013-04-15 00:30:00,
2013-04-14 20:35:00,81.1,71.2,29.90,ESE,103,1.0,2.0,72,0.00,,,0.00,Wunderground v.1.15,2013-04-15 00:35:00,
2013-04-14 20:45:00,80.8,70.9,29.90,ESE,104,1.0,2.0,72,0.00,,,0.00,Wunderground v.1.15,2013-04-15 00:45:00,
2013-04-14 20:50:00,80.6,70.7,29.90,East,96,1.0,4.0,72,0.00,,,0.00,Wunderground v.1.15,2013-04-15 00:50:00,
2013-04-14 21:00:00,80.4,70.9,29.91,ESE,108,1.0,1.0,73,0.00,,,0.00,Wunderground v.1.15,2013-04-15 01:00:00,
2013-04-14 21:05:00,80.2,70.8,29.91,ESE,105,1.0,3.0,73,0.00,,,0.00,Wunderground v.1.15,2013-04-15 01:05:00,
2013-04-14 21:15:00,80.0,70.6,29.93,East,101,1.0,2.0,73,0.00,,,0.00,Wunderground v.1.15,2013-04-15 01:15:00,
2013-04-14 21:20:00,80.0,70.6,29.93,ESE,108,2.0,3.0,73,0.00,,,0.00,Wunderground v.1.15,2013-04-15 01:20:00,
2013-04-14 21:25:00,79.9,70.5,29.94,ESE,107,3.0,3.0,73,0.00,,,0.00,Wunderground v.1.15,2013-04-15 01:25:00,
2013-04-14 21:35:00,79.7,70.0,29.95,ENE,77,6.0,8.0,73,0.00,,,0.00,weatherlink.com 1.10,2013-04-15 01:35:00,
2013-04-14 21:40:00,79.6,70.6,29.96,East,96,3.0,7.0,74,0.00,,,0.00,Wunderground v.1.15,2013-04-15 01:40:00,
2013-04-14 21:45:00,79.5,70.1,29.96,ESE,112,5.0,7.0,73,0.00,,,0.00,Wunderground v.1.15,2013-04-15 01:45:00,
2013-04-14 21:52:00,79.3,70.0,29.98,ESE,113,16.0,16.0,73,0.00,,,0.00,weatherlink.com 1.10,2013-04-15 01:52:00,
2013-04-14 22:00:00,75.9,64.2,29.99,ESE,108,10.0,20.0,67,0.00,,,0.00,Wunderground v.1.15,2013-04-15 02:00:00,
2013-04-14 22:08:00,73.8,64.0,30.00,ESE,122,9.0,24.0,71,0.00,,,0.00,weatherlink.com 1.10,2013-04-15 02:08:00,
2013-04-14 22:15:00,71.5,63.5,30.01,ESE,115,10.0,13.0,76,0.00,,,0.00,Wunderground v.1.15,2013-04-15 02:15:00,
2013-04-14 22:20:00,70.2,64.1,30.00,ENE,77,9.0,9.0,81,0.00,,,0.01,Wunderground v.1.15,2013-04-15 02:20:00,
2013-04-14 22:30:00,69.6,62.8,30.00,ESE,107,9.0,13.0,79,0.00,,,0.01,Wunderground v.1.15,2013-04-15 02:30:00,
2013-04-14 22:35:00,69.6,62.8,30.00,ESE,107,10.0,13.0,79,0.00,,,0.01,Wunderground v.1.15,2013-04-15 02:35:00,
2013-04-14 22:40:00,69.8,62.3,30.00,ESE,112,11.0,11.0,77,0.00,,,0.01,Wunderground v.1.15,2013-04-15 02:40:00,
2013-04-14 22:50:00,69.5,62.0,30.00,ENE,78,6.0,6.0,77,0.00,,,0.01,Wunderground v.1.15,2013-04-15 02:50:00,
2013-04-14 22:55:00,69.6,62.4,30.01,ESE,103,7.0,7.0,78,0.00,,,0.01,Wunderground v.1.15,2013-04-15 02:55:00,
2013-04-14 23:00:00,69.2,60.9,30.01,ESE,103,7.0,7.0,75,0.00,,,0.01,Wunderground v.1.15,2013-04-15 03:00:00,
2013-04-14 23:10:00,68.8,61.7,30.01,ESE,104,2.0,5.0,78,0.00,,,0.01,Wunderground v.1.15,2013-04-15 03:10:00,
2013-04-14 23:15:00,68.7,61.9,30.01,East,96,4.0,5.0,79,0.00,,,0.01,Wunderground v.1.15,2013-04-15 03:15:00,
2013-04-14 23:25:00,68.4,60.9,30.01,ESE,102,5.0,6.0,77,0.00,,,0.01,Wunderground v.1.15,2013-04-15 03:25:00,
2013-04-14 23:30:00,68.4,61.6,30.00,ESE,102,6.0,6.0,79,0.00,,,0.01,Wunderground v.1.15,2013-04-15 03:30:00,
2013-04-14 23:35:00,68.3,61.5,30.00,ESE,106,7.0,7.0,79,0.00,,,0.01,Wunderground v.1.15,2013-04-15 03:35:00,
2013-04-14 23:40:00,68.2,62.1,30.00,ESE,105,6.0,7.0,81,0.00,,,0.01,Wunderground v.1.15,2013-04-15 03:40:00,
2013-04-14 23:47:00,68.2,62.0,29.99,ESE,113,6.0,11.0,80,0.00,,,0.01,weatherlink.com 1.10,2013-04-15 03:47:00,
2013-04-14 23:55:00,67.7,61.7,29.99,ESE,103,5.0,7.0,81,0.00,,,0.01,Wunderground v.1.15,2013-04-15 03:55:00,